Location: ?????
(30.2541°N, 31.0910°E)
Time: 19:07:50
(UTC+00:00)

Cosmos 1633 Rocket - Pass Details

Date: 09 April 2023
Orbit: 604 x 623 km, 82.5° (Epoch: 30 May)

Event Time Altitude Azimuth Distance (km) Brightness Sun altitude
Rises 01:26:52 0° 355° (N) 2,890 6.8 -27.3°
Reaches altitude 10° 01:29:06 10° 356° (N) 1,978 5.9 -26.8°
Enters shadow 01:32:24 50° 3° (N) 781 3.6 -26.2°
